timestamp,surface_pressure_avg,surface_temp_avg,battery_voltage,lat,long
2021-09-11 00:09:01+00:00,304.3947,17.11,12.73,47.84626,-54.09684
2021-09-11 00:19:01+00:00,320.4163,17.12,12.73,47.84626,-54.09684
2021-09-11 00:29:01+00:00,322.733,17.14,12.73,47.84626,-54.09684
2021-09-11 00:39:01+00:00,321.2997,17.18,12.73,47.84626,-54.09684
2021-09-11 00:49:01+00:00,332.6196,17.19,12.73,47.84626,-54.09684
2021-09-11 00:59:01+00:00,345.0713,17.19,12.73,47.84626,-54.09684
2021-09-11 01:09:01+00:00,354.4013,17.19,12.73,47.84626,-54.09684
2021-09-11 01:19:01+00:00,357.173,17.2,12.73,47.84626,-54.09684
2021-09-11 01:29:01+00:00,369.0913,17.2,12.73,47.84626,-54.09684
2021-09-11 01:39:01+00:00,372.1413,17.2,12.73,47.84626,-54.09684
2021-09-11 01:49:01+00:00,375.6429,17.2,12.73,47.84626,-54.09684
2021-09-11 01:59:01+00:00,385.8463,17.2,12.73,47.84626,-54.09684
2021-09-11 02:09:01+00:00,395.3846,17.2,12.73,47.84626,-54.09684
2021-09-11 02:19:01+00:00,401.2829,17.2,12.73,47.84626,-54.09684
2021-09-11 02:29:01+00:00,404.1863,17.2,12.73,47.84626,-54.09684
2021-09-11 02:39:01+00:00,423.5378,17.2,12.73,47.84626,-54.09684
2021-09-11 02:49:01+00:00,433.4612,17.2,12.73,47.84626,-54.09684
2021-09-11 02:59:01+00:00,436.0178,17.28,12.73,47.84626,-54.09684
2021-09-11 03:09:01+00:00,445.1396,17.3,12.73,47.84626,-54.09684
2021-09-11 03:19:00+00:00,462.3578,17.3,12.73,47.84626,-54.09684
2021-09-11 03:29:00+00:00,478.1862,17.22,12.73,47.84626,-54.09684
2021-09-11 03:39:00+00:00,497.7062,17.22,12.73,47.84626,-54.09684
2021-09-11 03:49:00+00:00,523.5928,17.22,12.73,47.84626,-54.09684
2021-09-11 03:59:00+00:00,522.4744,17.26,12.73,47.84626,-54.09684
2021-09-11 04:09:00+00:00,490.9261,17.2,12.73,47.84626,-54.09684
2021-09-11 04:19:00+00:00,465.7161,17.2,12.65,47.84626,-54.09684
2021-09-11 04:29:00+00:00,449.5111,17.2,12.65,47.84626,-54.09684
2021-09-11 04:39:00+00:00,436.9611,17.21,12.65,47.84626,-54.09684
2021-09-11 04:49:00+00:00,429.5529,17.2,12.65,47.84626,-54.09684
2021-09-11 04:59:00+00:00,410.8345,17.2,12.65,47.84626,-54.09684
2021-09-11 05:09:00+00:00,378.67800000000005,17.2,12.65,47.84626,-54.09684
2021-09-11 05:19:01+00:00,334.7812,17.2,12.73,47.84626,-54.09684
2021-09-11 05:29:01+00:00,310.0914,17.2,12.73,47.84626,-54.09684
2021-09-11 05:39:01+00:00,296.8231,17.2,12.73,47.84626,-54.09684
2021-09-11 05:49:01+00:00,262.6531,17.2,12.73,47.84626,-54.09684
2021-09-11 05:59:01+00:00,215.4531,17.2,12.73,47.84626,-54.09684
2021-09-11 06:09:01+00:00,202.2548,17.2,12.73,47.84626,-54.09684
2021-09-11 06:19:00+00:00,189.7998,17.2,12.65,47.84626,-54.09684
2021-09-11 06:29:00+00:00,149.2732,17.2,12.65,47.84626,-54.09684
2021-09-11 06:39:00+00:00,123.0532,17.21,12.65,47.84626,-54.09684
2021-09-11 06:49:00+00:00,113.4099,17.21,12.65,47.84626,-54.09684
2021-09-11 06:59:00+00:00,95.5999,17.2,12.65,47.84626,-54.09684
2021-09-11 07:09:00+00:00,91.5566,17.2,12.65,47.84626,-54.09684
2021-09-11 07:19:01+00:00,98.2216,17.2,12.65,47.84626,-54.09684
2021-09-11 07:29:01+00:00,90.2083,17.2,12.65,47.84626,-54.09684
2021-09-11 07:39:01+00:00,85.5433,17.22,12.65,47.84626,-54.09684
2021-09-11 07:49:01+00:00,97.5616,17.2,12.65,47.84626,-54.09684
2021-09-11 07:59:01+00:00,95.8932,17.2,12.65,47.84626,-54.09684
2021-09-11 08:09:01+00:00,93.3349,17.2,12.65,47.84626,-54.09684
2021-09-11 08:19:01+00:00,109.7316,17.2,12.65,47.84626,-54.09684
2021-09-11 08:29:01+00:00,114.4599,17.2,12.65,47.84626,-54.09684
2021-09-11 08:39:01+00:00,116.5149,17.2,12.65,47.84626,-54.09684
2021-09-11 08:49:01+00:00,136.3416,17.2,12.65,47.84626,-54.09684
2021-09-11 08:59:01+00:00,157.0548,17.2,12.65,47.84626,-54.09684
2021-09-11 09:09:01+00:00,163.2998,17.2,12.65,47.84626,-54.09684
2021-09-11 09:19:01+00:00,175.2531,17.19,12.65,47.84626,-54.09684
2021-09-11 09:29:01+00:00,198.5348,17.2,12.65,47.84626,-54.09684
2021-09-11 09:39:01+00:00,214.6081,17.2,12.65,47.84626,-54.09684
2021-09-11 09:49:01+00:00,223.5881,17.19,12.65,47.84626,-54.09684
2021-09-11 09:59:01+00:00,235.2898,17.2,12.65,47.84626,-54.09684
2021-09-11 10:09:01+00:00,243.6298,17.2,12.65,47.84626,-54.09684
2021-09-11 10:19:00+00:00,238.8781,17.2,12.65,47.84626,-54.09684
2021-09-11 10:29:00+00:00,235.8214,17.23,12.65,47.84626,-54.09684
2021-09-11 10:39:00+00:00,245.7481,17.25,12.65,47.84626,-54.09684
2021-09-11 10:49:00+00:00,249.1581,17.26,12.65,47.84626,-54.09684
2021-09-11 10:59:00+00:00,241.2664,17.26,12.65,47.84626,-54.09684
2021-09-11 11:09:00+00:00,237.5265,17.26,12.65,47.84626,-54.09684
2021-09-11 11:19:01+00:00,241.3431,17.23,12.81,47.84626,-54.09684
2021-09-11 11:29:01+00:00,233.3197,17.16,12.81,47.84626,-54.09684
2021-09-11 11:39:01+00:00,219.6097,17.14,12.81,47.84626,-54.09684
2021-09-11 11:49:01+00:00,220.4648,17.16,12.81,47.84626,-54.09684
2021-09-11 11:59:01+00:00,230.1864,17.1,12.81,47.84626,-54.09684
2021-09-11 12:09:01+00:00,228.3514,17.17,12.81,47.84626,-54.09684
2021-09-11 12:19:01+00:00,226.8264,17.1,13.37,47.84626,-54.09684
2021-09-11 12:29:01+00:00,241.5281,17.1,13.37,47.84626,-54.09684
2021-09-11 12:39:01+00:00,250.1314,17.1,13.37,47.84626,-54.09684
2021-09-11 12:49:01+00:00,251.8031,17.09,13.37,47.84626,-54.09684
2021-09-11 12:59:01+00:00,259.3281,17.09,13.37,47.84626,-54.09684
2021-09-11 13:09:01+00:00,274.6114,17.09,13.37,47.84626,-54.09684
2021-09-11 13:19:01+00:00,289.3364,17.07,14.0,47.84626,-54.09684
2021-09-11 13:29:01+00:00,306.3881,17.06,14.0,47.84626,-54.09684
2021-09-11 13:39:01+00:00,325.9147,17.08,14.0,47.84626,-54.09684
2021-09-11 13:49:01+00:00,339.0646,17.09,14.0,47.84626,-54.09684
2021-09-11 13:59:01+00:00,351.0096,17.0,14.0,47.84626,-54.09684
2021-09-11 14:09:01+00:00,364.7928,17.0,14.0,47.84626,-54.09684
2021-09-11 14:19:01+00:00,374.1629,17.04,14.32,47.84626,-54.09684
2021-09-11 14:29:01+00:00,377.3929,17.1,14.32,47.84626,-54.09684
2021-09-11 14:39:01+00:00,382.4695,17.11,14.32,47.84626,-54.09684
2021-09-11 14:49:01+00:00,389.7745,17.15,14.32,47.84626,-54.09684
2021-09-11 14:59:01+00:00,387.5862,17.13,14.32,47.84626,-54.09684
2021-09-11 15:09:01+00:00,384.3113,17.18,14.32,47.84626,-54.09684
2021-09-11 15:19:01+00:00,385.8362,17.2,14.24,47.84626,-54.09684
2021-09-11 15:29:01+00:00,382.5229,17.2,14.24,47.84626,-54.09684
2021-09-11 15:39:01+00:00,376.4396,17.3,14.24,47.84626,-54.09684
2021-09-11 15:49:01+00:00,376.5796,17.3,14.24,47.84626,-54.09684
2021-09-11 15:59:01+00:00,375.2897,17.3,14.24,47.84626,-54.09684
2021-09-11 16:09:01+00:00,359.2313,17.2,14.24,47.84626,-54.09684
2021-09-11 16:19:01+00:00,345.6429,17.09,14.24,47.84626,-54.09684
2021-09-11 16:29:01+00:00,346.49800000000016,17.09,14.24,47.84626,-54.09684
2021-09-11 16:39:01+00:00,336.4413,17.09,14.24,47.84626,-54.09684
2021-09-11 16:49:01+00:00,316.5746,17.0,14.24,47.84626,-54.09684
2021-09-11 16:59:01+00:00,308.9513,17.0,14.24,47.84626,-54.09684
2021-09-11 17:09:01+00:00,309.6964,17.0,14.24,47.84626,-54.09684
2021-09-11 17:19:01+00:00,298.2897,17.09,14.0,47.84626,-54.09684
2021-09-11 17:29:01+00:00,282.4081,17.1,14.0,47.84626,-54.09684
2021-09-11 17:39:01+00:00,280.2197,17.1,14.0,47.84626,-54.09684
2021-09-11 17:49:01+00:00,274.0698,17.1,14.0,47.84626,-54.09684
2021-09-11 17:59:01+00:00,257.9131,17.1,14.0,47.84626,-54.09684
2021-09-11 18:09:01+00:00,247.1514,17.0,14.0,47.84626,-54.09684
2021-09-11 18:19:01+00:00,247.3431,17.0,14.0,47.84626,-54.09684
2021-09-11 18:29:01+00:00,244.0398,16.9,14.0,47.84626,-54.09684
2021-09-11 18:39:01+00:00,238.7081,16.87,14.0,47.84626,-54.09684
2021-09-11 18:49:01+00:00,236.8981,16.88,14.0,47.84626,-54.09684
2021-09-11 18:59:01+00:00,236.2148,16.89,14.0,47.84626,-54.09684
2021-09-11 19:09:01+00:00,234.1815,16.89,14.0,47.84626,-54.09684
2021-09-11 19:19:01+00:00,232.5764,16.92,13.68,47.84626,-54.09684
2021-09-11 19:29:01+00:00,233.338,17.0,13.68,47.84626,-54.09684
2021-09-11 19:39:01+00:00,235.3731,17.1,13.68,47.84626,-54.09684
2021-09-11 19:49:01+00:00,240.9548,17.1,13.68,47.84626,-54.09684
2021-09-11 19:59:01+00:00,244.1881,17.1,13.68,47.84626,-54.09684
2021-09-11 20:09:01+00:00,243.5598,17.12,13.68,47.84626,-54.09684
2021-09-11 20:19:01+00:00,244.8897,17.2,13.53,47.84626,-54.09684
2021-09-11 20:29:01+00:00,249.0398,17.29,13.53,47.84626,-54.09684
2021-09-11 20:39:01+00:00,252.0731,17.3,13.53,47.84626,-54.09684
2021-09-11 20:49:01+00:00,255.8264,17.3,13.53,47.84626,-54.09684
2021-09-11 20:59:01+00:00,257.9048,17.3,13.53,47.84626,-54.09684
2021-09-11 21:09:01+00:00,259.0547,17.3,13.53,47.84626,-54.09684
2021-09-11 21:19:01+00:00,255.4281,17.3,13.37,47.84626,-54.09684
2021-09-11 21:29:01+00:00,250.7664,17.3,13.37,47.84626,-54.09684
2021-09-11 21:39:01+00:00,245.2548,17.3,13.37,47.84626,-54.09684
2021-09-11 21:49:01+00:00,244.0331,17.3,13.37,47.84626,-54.09684
2021-09-11 21:59:01+00:00,241.3181,17.3,13.37,47.84626,-54.09684
2021-09-11 22:09:01+00:00,236.6498,17.3,13.37,47.84626,-54.09684
2021-09-11 22:19:00+00:00,230.4264,17.3,12.97,47.84626,-54.09684
2021-09-11 22:29:00+00:00,227.8314,17.3,12.97,47.84626,-54.09684
2021-09-11 22:39:00+00:00,225.3081,17.39,12.97,47.84626,-54.09684
2021-09-11 22:49:00+00:00,223.4498,17.4,12.97,47.84626,-54.09684
2021-09-11 22:59:00+00:00,221.1865,17.4,12.97,47.84626,-54.09684
2021-09-11 23:09:00+00:00,219.2048,17.45,12.97,47.84626,-54.09684
2021-09-11 23:19:01+00:00,220.5997,17.47,12.73,47.84626,-54.09684
2021-09-11 23:29:01+00:00,225.7764,17.48,12.73,47.84626,-54.09684
2021-09-11 23:39:01+00:00,230.0781,17.49,12.73,47.84626,-54.09684
2021-09-11 23:49:01+00:00,229.2515,17.5,12.73,47.84626,-54.09684
2021-09-11 23:59:01+00:00,228.0798,17.5,12.73,47.84626,-54.09684
